Location: Chantarel
(45.1638°N, 1.7873°E)
Time: 07:29:12
(UTC+00:00)

SJ 16-02 - Pass Details

Date: 03 March 2021
Orbit: 605 x 617 km, 75.0° (Epoch: 10 April)

Event Time Altitude Azimuth Distance (km) Brightness Sun altitude
Rises 21:13:09 0° 330° (NNW) 2,883 5.6 -36.4°
Reaches altitude 10° 21:15:35 10° 320° (NW) 1,976 4.6 -36.8°
Enters shadow 21:16:35 16° 313° (NW) 1,642 4.2 -36.9°
